Santa Monica, CA

8:42 PM PST on November 17, 2017 (GMT -0800)
Santa Monica Municipal

Weather History for KSMO - September, 2013

Change the Weather History Date:

Wednesday, September 4, 2013

  Actual Average Record
Temperature  
Mean Temperature 78 °F -  
Max Temperature 86 °F 82 °F 110 °F (1988)
Min Temperature 70 °F 63 °F 49 °F (1940)
Cooling Degree Days 13    
Growing Degree Days 28 (Base 50)    
Moisture  
Dew Point 62 °F    
Average Humidity 63    
Maximum Humidity 81    
Minimum Humidity 44    
Precipitation  
Precipitation 0.00 in - - ()
Sea Level Pressure  
Sea Level Pressure 29.87 in    
Wind  
Wind Speed 3 mph (SSW)    
Max Wind Speed 10 mph    
Max Gust Speed 18 mph    
Visibility 10 miles    
Events      
Averages and records for this station are not official NWS values.
T = Trace of Precipitation, MM = Missing Value Source: NWS Daily Summary

Daily Weather History Graph

Daily Weather History Graph

Search for Another Location

Airport or City:

Trip Planner

Search our weather history database for the weather conditions in past years. The results will help you decide how hot, cold, wet, or windy it might be!

Date:

Astronomy

Sep. 04, 2013 Rise Set
Actual Time 6:29 AM PDT 7:15 PM PDT
Civil Twilight 6:04 AM PDT 7:40 PM PDT
Nautical Twilight 5:34 AM PDT 8:10 PM PDT
Astronomical Twilight 5:03 AM PDT 8:40 PM PDT
Moon 5:46 AM PDT (9/4) 6:39 PM PDT (9/4)
Length of Visible Light 13h 36m
Length of Day
12h 45m
Waning Crescent, 1% of the Moon is Illuminated
Sep 4
Waning Crescent
Sep 5
New
Sep 12
First Quarter
Sep 19
Full
Sep 26
Last Quarter

Hourly Weather History & Observations

Time (PDT) Temp. Heat Index Dew Point Humidity Pressure Visibility Wind Dir Wind Speed Gust Speed Precip Events Conditions
12:51 AM 72.0 °F - 63.0 °F 73% 29.88 in 10.0 mi Calm Calm - N/A   Clear
1:51 AM 71.1 °F - 63.0 °F 75% 29.88 in 10.0 mi Calm Calm - N/A   Clear
2:51 AM 72.0 °F - 63.0 °F 73% 29.87 in 10.0 mi South 3.5 mph - N/A   Clear
3:51 AM 71.1 °F - 63.0 °F 75% 29.86 in 10.0 mi Calm Calm - N/A   Clear
4:51 AM 71.1 °F - 64.0 °F 78% 29.86 in 10.0 mi Calm Calm - N/A   Clear
5:51 AM 70.0 °F - 63.0 °F 78% 29.87 in 10.0 mi Calm Calm - N/A   Clear
6:51 AM 70.0 °F - 64.0 °F 81% 29.89 in 10.0 mi Calm Calm - N/A   Clear
7:51 AM 73.9 °F - 64.0 °F 71% 29.90 in 10.0 mi Calm Calm - N/A   Clear
8:51 AM 79.0 °F - 64.0 °F 60% 29.90 in 10.0 mi SSW 4.6 mph - N/A   Clear
9:51 AM 81.0 °F 82.2 °F 63.0 °F 54% 29.91 in 10.0 mi SW 5.8 mph - N/A   Clear
10:51 AM 82.0 °F 83.0 °F 62.1 °F 51% 29.91 in 10.0 mi WSW 5.8 mph - N/A   Clear
11:51 AM 82.0 °F 83.0 °F 62.1 °F 51% 29.90 in 10.0 mi SW 8.1 mph - N/A   Clear
12:51 PM 86.0 °F 86.3 °F 62.1 °F 44% 29.88 in 10.0 mi SW 8.1 mph - N/A   Clear
1:51 PM 84.0 °F 84.0 °F 60.1 °F 44% 29.86 in 10.0 mi WSW 8.1 mph - N/A   Clear
2:51 PM 82.0 °F 82.4 °F 60.1 °F 47% 29.85 in 10.0 mi SW 8.1 mph - N/A   Clear
3:51 PM 79.0 °F - 61.0 °F 54% 29.84 in 10.0 mi SW 10.4 mph 18.4 mph N/A   Clear
4:51 PM 79.0 °F - 62.1 °F 56% 29.83 in 10.0 mi SSW 8.1 mph - N/A   Clear
5:51 PM 77.0 °F - 61.0 °F 58% 29.83 in 10.0 mi South 6.9 mph - N/A   Clear
6:51 PM 75.0 °F - 61.0 °F 62% 29.84 in 10.0 mi SSW 5.8 mph - N/A   Clear
7:51 PM 73.0 °F - 61.0 °F 66% 29.85 in 10.0 mi SSW 3.5 mph - N/A   Clear
8:51 PM 72.0 °F - 62.1 °F 71% 29.86 in 10.0 mi SE 3.5 mph - N/A   Clear
9:51 PM 73.0 °F - 62.1 °F 68% 29.86 in 10.0 mi Calm Calm - N/A   Clear
10:51 PM 73.0 °F - 62.1 °F 68% 29.86 in 10.0 mi Calm Calm - N/A   Clear
11:51 PM 75.0 °F - 62.1 °F 64% 29.86 in 10.0 mi Calm Calm - N/A   Clear